TimeCST,TemperatureF,Dew PointF,Humidity,Sea Level PressureIn,VisibilityMPH,Wind Direction,Wind SpeedMPH,Gust SpeedMPH,PrecipitationIn,Events,Conditions,WindDirDegrees,DateUTC
12:15 AM,26.6,23.0,86,30.32,10.0,West,3.5,-,N/A,,Overcast,270,2013-03-07 06:15:00
12:35 AM,27.0,23.4,86,30.33,10.0,WNW,5.8,-,N/A,,Overcast,290,2013-03-07 06:35:00
12:55 AM,27.1,23.4,86,30.33,10.0,WNW,6.9,-,N/A,,Overcast,290,2013-03-07 06:55:00
1:15 AM,27.1,23.2,85,30.34,10.0,WNW,6.9,-,N/A,,Overcast,290,2013-03-07 07:15:00
1:35 AM,27.1,23.4,86,30.35,10.0,West,4.6,-,N/A,,Overcast,280,2013-03-07 07:35:00
1:55 AM,27.1,23.4,86,30.35,10.0,West,6.9,-,N/A,,Overcast,280,2013-03-07 07:55:00
2:15 AM,27.0,23.0,85,30.35,10.0,WNW,6.9,-,N/A,,Overcast,290,2013-03-07 08:15:00
2:35 AM,27.1,23.0,84,30.35,10.0,WNW,8.1,-,N/A,,Overcast,290,2013-03-07 08:35:00
2:55 AM,27.1,23.0,84,30.35,10.0,WNW,6.9,-,N/A,,Overcast,290,2013-03-07 08:55:00
3:15 AM,27.0,23.0,85,30.35,10.0,WNW,6.9,-,N/A,,Overcast,290,2013-03-07 09:15:00
3:35 AM,26.8,22.6,84,30.35,10.0,WNW,6.9,-,N/A,,Overcast,290,2013-03-07 09:35:00
3:55 AM,26.6,22.5,84,30.35,10.0,WNW,5.8,-,N/A,,Overcast,290,2013-03-07 09:55:00
4:15 AM,26.4,22.6,86,30.35,10.0,West,5.8,-,N/A,,Overcast,280,2013-03-07 10:15:00
4:35 AM,26.4,22.6,86,30.35,10.0,West,5.8,-,N/A,,Overcast,280,2013-03-07 10:35:00
4:55 AM,26.2,22.6,86,30.35,10.0,West,3.5,-,N/A,,Overcast,280,2013-03-07 10:55:00
5:15 AM,26.2,22.5,86,30.36,10.0,West,5.8,-,N/A,,Overcast,280,2013-03-07 11:15:00
5:35 AM,26.2,22.5,86,30.36,7.0,WNW,5.8,-,N/A,,Overcast,290,2013-03-07 11:35:00
5:55 AM,26.4,22.3,84,30.37,10.0,WNW,6.9,-,N/A,,Overcast,300,2013-03-07 11:55:00
6:15 AM,26.4,22.5,85,30.37,10.0,WNW,5.8,-,N/A,,Overcast,300,2013-03-07 12:15:00
6:35 AM,26.2,22.1,84,30.37,7.0,WNW,3.5,-,N/A,,Overcast,290,2013-03-07 12:35:00
6:55 AM,26.2,22.1,84,30.38,7.0,Calm,Calm,-,N/A,,Overcast,0,2013-03-07 12:55:00
7:15 AM,26.2,22.3,85,30.38,7.0,WNW,4.6,-,N/A,,Overcast,300,2013-03-07 13:15:00
7:35 AM,26.6,22.5,84,30.38,7.0,West,3.5,-,N/A,,Overcast,280,2013-03-07 13:35:00
7:55 AM,27.1,22.8,84,30.39,7.0,WNW,6.9,-,N/A,,Overcast,300,2013-03-07 13:55:00
8:15 AM,27.5,23.0,83,30.39,7.0,WNW,4.6,-,N/A,,Overcast,300,2013-03-07 14:15:00
8:35 AM,27.7,23.0,83,30.40,7.0,WNW,4.6,-,N/A,,Overcast,300,2013-03-07 14:35:00
8:55 AM,28.4,23.4,81,30.41,7.0,NW,6.9,-,N/A,,Overcast,310,2013-03-07 14:55:00
9:15 AM,28.9,23.5,80,30.41,10.0,WNW,4.6,-,N/A,,Overcast,300,2013-03-07 15:15:00
9:35 AM,29.7,23.9,79,30.41,10.0,NW,5.8,-,N/A,,Overcast,310,2013-03-07 15:35:00
9:55 AM,30.4,24.1,77,30.41,10.0,Calm,Calm,-,N/A,,Overcast,0,2013-03-07 15:55:00
10:15 AM,31.5,24.1,74,30.41,10.0,WNW,3.5,-,N/A,,Overcast,300,2013-03-07 16:15:00
10:35 AM,32.0,24.3,73,30.41,10.0,Calm,Calm,-,N/A,,Overcast,0,2013-03-07 16:35:00
10:55 AM,32.4,24.6,73,30.40,10.0,Calm,Calm,-,N/A,,Overcast,0,2013-03-07 16:55:00
11:15 AM,32.5,23.9,70,30.41,10.0,Calm,Calm,-,N/A,,Overcast,0,2013-03-07 17:15:00
11:35 AM,34.0,23.7,66,30.40,10.0,Calm,Calm,-,N/A,,Overcast,0,2013-03-07 17:35:00
11:55 AM,34.3,23.7,65,30.41,10.0,WSW,3.5,-,N/A,,Overcast,240,2013-03-07 17:55:00
12:15 PM,34.3,23.4,64,30.40,10.0,ESE,5.8,-,N/A,,Overcast,110,2013-03-07 18:15:00
12:35 PM,34.3,23.4,64,30.39,10.0,WSW,5.8,-,N/A,,Overcast,240,2013-03-07 18:35:00
12:55 PM,34.3,23.2,64,30.38,10.0,WSW,6.9,-,N/A,,Overcast,240,2013-03-07 18:55:00
1:15 PM,34.7,23.4,63,30.38,10.0,SW,4.6,-,N/A,,Mostly Cloudy,230,2013-03-07 19:15:00
1:35 PM,34.3,23.7,65,30.37,10.0,WSW,3.5,-,N/A,,Scattered Clouds,250,2013-03-07 19:35:00
1:55 PM,35.1,23.7,63,30.38,10.0,WSW,4.6,-,N/A,,Scattered Clouds,250,2013-03-07 19:55:00
2:15 PM,35.1,23.9,64,30.38,10.0,SW,4.6,-,N/A,,Scattered Clouds,230,2013-03-07 20:15:00
2:35 PM,34.5,23.9,65,30.38,10.0,WSW,5.8,-,N/A,,Scattered Clouds,250,2013-03-07 20:35:00
2:55 PM,35.1,24.3,65,30.38,10.0,WSW,3.5,-,N/A,,Clear,240,2013-03-07 20:55:00
3:15 PM,34.7,23.9,65,30.39,10.0,Calm,Calm,-,N/A,,Clear,0,2013-03-07 21:15:00
3:35 PM,34.5,23.9,65,30.39,10.0,WSW,4.6,-,N/A,,Clear,250,2013-03-07 21:35:00
3:55 PM,34.3,24.4,67,30.38,10.0,East,3.5,-,N/A,,Clear,100,2013-03-07 21:55:00
4:15 PM,34.3,24.3,67,30.38,10.0,East,3.5,-,N/A,,Clear,100,2013-03-07 22:15:00
4:35 PM,34.0,24.6,69,30.37,10.0,East,4.6,-,N/A,,Clear,100,2013-03-07 22:35:00
4:55 PM,33.6,24.3,69,30.38,10.0,ESE,8.1,-,N/A,,Clear,120,2013-03-07 22:55:00
5:15 PM,32.7,23.7,69,30.38,10.0,East,8.1,-,N/A,,Clear,100,2013-03-07 23:15:00
5:35 PM,32.2,23.7,71,30.38,10.0,East,6.9,-,N/A,,Clear,90,2013-03-07 23:35:00
7:35 PM,30.0,23.7,77,30.39,10.0,SE,3.5,-,N/A,,Clear,130,2013-03-08 01:35:00
7:55 PM,28.9,23.0,78,30.39,10.0,SE,3.5,-,N/A,,Clear,130,2013-03-08 01:55:00
8:15 PM,28.2,23.0,81,30.39,10.0,ESE,3.5,-,N/A,,Clear,120,2013-03-08 02:15:00
8:35 PM,27.0,22.1,82,30.39,10.0,Calm,Calm,-,N/A,,Clear,0,2013-03-08 02:35:00
8:55 PM,26.6,22.1,83,30.40,10.0,ENE,3.5,-,N/A,,Clear,70,2013-03-08 02:55:00
9:15 PM,25.7,22.1,86,30.40,10.0,East,3.5,-,N/A,,Clear,90,2013-03-08 03:15:00
9:35 PM,26.2,22.5,86,30.40,10.0,East,3.5,-,N/A,,Clear,80,2013-03-08 03:35:00
9:55 PM,24.6,21.0,86,30.40,10.0,East,5.8,-,N/A,,Clear,80,2013-03-08 03:55:00
10:15 PM,25.7,21.9,86,30.40,10.0,East,4.6,-,N/A,,Clear,80,2013-03-08 04:15:00
10:35 PM,24.6,21.2,87,30.40,10.0,East,4.6,-,N/A,,Clear,80,2013-03-08 04:35:00
10:55 PM,24.6,21.7,89,30.41,10.0,ENE,4.6,-,N/A,,Clear,70,2013-03-08 04:55:00
11:15 PM,23.2,20.1,88,30.40,7.0,East,6.9,-,N/A,,Clear,80,2013-03-08 05:15:00
11:35 PM,23.7,20.5,87,30.41,10.0,East,6.9,-,N/A,,Clear,80,2013-03-08 05:35:00
11:55 PM,24.1,20.7,87,30.41,10.0,East,4.6,-,N/A,,Clear,80,2013-03-08 05:55:00